Regional Weather Roundup
Issued by NWS

Home | Current Version | Previous Version | Text Only | Print | Product List | Glossary Off
Versions: 1 2 3 4 5 6 7 8 9 10 11 12 13 14 15 16 17 18 19 20 21 22 23 24 25 26 27 28 29 30 31 32 33 34 35 36 37 38 39 40 41 42 43 44 45 46 47 48 49 50

000
ASUS43 KOAX 300102
RWRNE

WEATHER ROUNDUP FOR NEBRASKA
NATIONAL WEATHER SERVICE OMAHA NE
800 PM CDT TUE JUL 29 2014

NOTES: SATELLITE DATA IS BEING USED TO AUGMENT CLOUD COVER ABOVE
       12000 FEET.
       "FAIR" INDICATES FEW OR NO CLOUDS BELOW 12,000 FEET WITH NO
       SIGNIFICANT WEATHER AND/OR OBSTRUCTIONS TO VISIBILITY.

  * THESE STATIONS DO NOT REPORT WEATHER SUCH AS RAIN...SNOW OR FOG.

NEZ001>004-019>022-054>056-300200-
NEBRASKA PANHANDLE

CITY           SKY/WX    TMP DP  RH WIND       PRES   REMARKS
SCOTTSBLUFF    LGT RAIN  70  60  70 E9        30.20R
ALLIANCE       CLOUDY    71  59  65 SE10      30.21R
CHADRON        LGT RAIN  71  54  54 NE8       30.21R
KIMBALL        CLOUDY    66  57  71 E20G26    30.19S
SIDNEY         CLOUDY    68  57  68 NE20G29   30.18F
$$

NEZ057>060-069>072-079>082-300200-
SOUTHWEST NEBRASKA

CITY           SKY/WX    TMP DP  RH WIND       PRES   REMARKS
NORTH PLATTE   LGT RAIN  70  64  81 S7        30.15S
IMPERIAL       CLOUDY    78  58  49 E14       30.11S
LEXINGTON      MOCLDY    75  61  60 E10       30.14S
MCCOOK         MOCLDY    78  58  49 E17G26    30.10S
OGALLALA       CLOUDY    72  58  62 E16       30.15F
$$

NEZ005>010-023>029-035>040-094-300200-
NORTH CENTRAL NEBRASKA

CITY           SKY/WX    TMP DP  RH WIND       PRES   REMARKS
VALENTINE      MOSUNNY   75  49  39 NE7       30.17S
AINSWORTH      CLOUDY    73  53  49 CALM      30.17S
BROKEN BOW     MOCLDY    73  60  63 E6        30.15R
O`NEILL        CLOUDY    74  55  51 E10G16    30.15R
ORD            CLOUDY    72  58  61 NE5       30.14R
$$

NEZ041-046>049-061>064-073>077-083>087-300200-
SOUTH CENTRAL NEBRASKA

CITY           SKY/WX    TMP DP  RH WIND       PRES   REMARKS
GRAND ISLAND   MOCLDY    73  57  57 E8        30.15R
AURORA         PTCLDY    71  59  65 E6        30.13F
HASTINGS       PTCLDY    74  56  53 E6        30.14S
HEBRON         PTCLDY    76  56  49 NE6       30.12S
HOLDREGE       MOCLDY    73  60  63 E8        30.14R
KEARNEY *      PTCLDY    73  59  60 E7        30.15S
YORK           MOCLDY    72  59  64 E3        30.14S
$$

NEZ011>018-030>034-042>045-300200-
NORTHEAST NEBRASKA

CITY           SKY/WX    TMP DP  RH WIND       PRES   REMARKS
NORFOLK        MOCLDY    72  55  55 NE6       30.13S
ALBION         MOCLDY    70  60  69 E3        30.14R
BLAIR          PTCLDY    71  55  55 N3        30.11F
COLUMBUS *     CLOUDY    52 N/A N/A E3        30.13S
FREMONT        PTCLDY    74  55  51 NE5       30.13S
TEKAMAH        PTCLDY    73  56  54 NE3       30.11S
WAYNE          PTCLDY    71  61  69 CALM      30.13F
$$

NEZ050>053-065>068-078-088>093-300200-
SOUTHEAST NEBRASKA

CITY           SKY/WX    TMP DP  RH WIND       PRES   REMARKS
LINCOLN        MOCLDY    75  54  47 NE10      30.13R
OMAHA EPPLEY   MOCLDY    75  53  46 NE6       30.11F
BEATRICE       MOCLDY    75  57  53 NE5       30.11S
FALLS CITY     PTCLDY    75  59  57 NE3       30.09F
NEBRASKA CITY  MOCLDY    72  57  59 NE3       30.11S
PLATTSMOUTH    PTCLDY    71  56  59 CALM      30.12S
$$

NEZ044-045-051>053-067-300200-
OMAHA AREA

CITY           SKY/WX    TMP DP  RH WIND       PRES   REMARKS
OMAHA EPPLEY   MOCLDY    75  53  46 NE6       30.11F
BLAIR          PTCLDY    71  55  55 N3        30.11F
FREMONT        PTCLDY    74  55  51 NE5       30.13S
MILLARD        PTCLDY    74  55  52 CALM      30.11S
OFFUTT AFB     PTCLDY    73  57  57 NE3       30.10F
PLATTSMOUTH    PTCLDY    71  56  59 CALM      30.12S
WAHOO          FAIR      72  60  65 N3        30.12S
$$



USA.gov is the U.S. government's official web portal to all federal, state and local government web resources and services.